weather.gov     
National Weather Service

Regional Weather Roundup
NWS Homepage
This page is being discontinued on March 12, 2014.
The same data is available at this site. Please update your bookmarks.
Thank you, and we apologize for the inconvenience.
Please send an email to SR-SRH.Webmaster@noaa.gov with any concerns.


Current Version
Previous Version:    01  02  03  04  05  06  07  08  09  
[Printable]
487
ASUS42 KTBW 290910
RWRFL
FLORIDA REGIONAL WEATHER ROUNDUP
NATIONAL WEATHER SERVICE TAMPA BAY RUSKIN FL
400 AM EST SAT NOV 29 2014

NOTE: "FAIR" INDICATES FEW OR NO CLOUDS BELOW 12,000 FEET WITH NO
SIGNIFICANT WEATHER AND/OR OBSTRUCTIONS TO VISIBILITY.


FLZ001>010-012>015-112-114-115-291000-
PANHANDLE FLORIDA

CITY           SKY/WX    TMP DP  RH WIND       PRES   REMARKS
PENSACOLA      CLEAR     41  37  86 NE3       30.25S
PENSACOLA NAS  CLEAR     36  35  96 N3        30.25S FOG
MILTON NAS     CLEAR     35  32  88 E3        30.26S
CRESTVIEW      CLEAR     30  29  96 CALM      30.29S
DUKE FIELD     FAIR      35  29  78 CALM      30.26S
VALPARAISO     CLEAR     38  35  85 NE5       30.26F WCI  35
MARY ESTHER    CLEAR     40  34  80 NE6       30.25F WCI  36
TRI COUNTY     FAIR      32  31  96 CALM      30.30S
PANAMA CITY    FAIR      36  32  85 CALM      30.27F
TYNDALL AFB    CLEAR     41  35  78 E3        30.28F
APALACHICOLA   CLEAR     42  36  79 NE5       30.28S WCI  39

STATION/POSITION SKY/WX   TEMP    WIND        PRES    WAVE   SWELL
                          AIR SEA DIR/SP/G            HT/PER HT/PER
                          (F)     (DEG/KT/KT) (MB)    (FT/S) (FT/S)
30.1N   87.6W              62 65  160/  8/ 10 1023.7F   1/ 6
29.2N   88.2W              63 70  150/ 10/ 14 1024.5F   2/ 6   2/ 6
28.7N   86.0W              62 75  100/  8/ 12 1024.6R   2/ 5   2/ 5
PANAMA CITY BEAC           47 62   80/ 11/ 13 1024.6F
CAPE SAN BLAS    NOT AVBL
TOWER C                    56     120/  7/  8 1025.1R
28.5N   84.5W              59 69  100/ 10/ 14 1024.4F   2/ 4

$$
FLZ011-016>038-118-127-128-134-139-239-291000-
NORTH FLORIDA

CITY           SKY/WX    TMP DP  RH WIND       PRES   REMARKS
MARIANNA       CLEAR     33  33 100 CALM      30.29S
TALLAHASSEE    CLEAR     32  27  81 CALM      30.30R
PERRY          CLEAR     35  34  94 CALM      30.31R
CROSS CITY       N/A     31  28  89 CALM      30.28F
LAKE CITY      FAIR      32  32 100 NE3       30.29S FOG
GAINESVILLE    CLEAR     33  32  96 CALM      30.29S
MAYPORT NAS    CLEAR     46  41  82 NW3       30.29F
JACKSONVILLE   CLEAR     35  34  96 CALM      30.30F
JAX NAS        CLEAR     46  39  76 NW7       30.31R WCI  42
JAX CRAIG      CLEAR     39  37  92 CALM      30.30S
JAX CECIL      CLEAR     32  32 100 CALM      30.30F FOG
FERNANDINA BEA FAIR      45  43  93 CALM      30.29S
ST AUGUSTINE   CLEAR     43  38  82 NW7       30.29S WCI  39

STATION/POSITION SKY/WX   TEMP    WIND        PRES    WAVE   SWELL
                          AIR SEA DIR/SP/G            HT/PER HT/PER
                          (F)     (DEG/KT/KT) (MB)    (FT/S) (FT/S)
SHELL POINT                44      40/  4/  5   N/A
KEATON BEACH               39      60/  5/  6 1025.9R
CEDAR KEY                  47      70/ 10/ 11 1025.8F
FERNANDINA                 47 59  340/  3/  4 1025.5S
30.7N   81.3W                 60                N/A     3/ 9
MAYPORT                    46 61  350/  6/  8   N/A
31.4N   80.9W              52 62   20/  2/  4 1026.3F   2/10   2/10
ST AUGUSTINE               46     310/  6/  7 1025.9S

$$
FLZ040-043>046-052-053-057-058-063-144-291000-
INTERIOR CENTRAL FLORIDA

CITY           SKY/WX    TMP DP  RH WIND       PRES   REMARKS
OCALA          CLEAR     37  34  87 CALM      30.28S
THE VILLAGES     N/A     45  41  87 CALM      30.18S
LEESBURG       CLEAR     43  40  89 N3        30.28F
SANFORD        CLEAR     48  44  86 N7        30.27S WCI  45
ORLANDO EXEC   CLEAR     48  43  82 N5        30.27R
ORLANDO INTL   CLEAR     48  45  89 N8        30.27R WCI  44
WINTER HAVEN   CLEAR     47  43  86 N7        30.28R WCI  44
LAKELAND       CLEAR     45  41  87 N5        30.27S WCI  42
BARTOW         FAIR      45  43  93 NW5       30.27S WCI  42
OKEECHOBEE     PTCLDY    45  43  93 N6        30.23S WCI  41

$$
FLZ041-047-054-059-064-141-147-291000-
EAST CENTRAL FLORIDA

CITY           SKY/WX    TMP DP  RH WIND       PRES   REMARKS
DAYTONA BEACH  CLEAR     47  43  86 NW3       30.27S
DELAND         SUNNY    N/A N/A N/A N5        30.28S
JFK SPACE CTR  CLEAR     52  48  87 NW9       30.27S
CAPE CANAVERAL PTCLDY    54  50  87 NW10      30.25S
PATRICK AFB    PTCLDY    54  51  88 NW17      30.23S
MELBOURNE      CLOUDY    52  48  86 NW9       30.23S
VERO BEACH     CLEAR     48  47  96 NW7       30.21S WCI  45
FT PIERCE      CLEAR     51  48  89 NW6       30.20F
STUART         CLOUDY    52  50  93 W3        30.21S

STATION/POSITION SKY/WX   TEMP    WIND        PRES    WAVE   SWELL
                          AIR SEA DIR/SP/G            HT/PER HT/PER
                          (F)     (DEG/KT/KT) (MB)    (FT/S) (FT/S)
28.5N   80.2W              66 76   40/ 10/ 14 1023.3R
28.9N   78.5W              65 78   40/ 10/ 16 1023.5S   5/ 9   5/ 9
TRIDENT PIER               53 67  320/  9/ 12 1023.4R
28.4N   80.5W                 66                N/A     3/ 9
27.6N   80.2W                 72                N/A     4/ 8

$$
FLZ050-056-061-142-242-148-248-149-249-151-251-155-255-
160-260-291000-
WEST CENTRAL FLORIDA

CITY           SKY/WX    TMP DP  RH WIND       PRES   REMARKS
CRYSTAL RIVER  FAIR      41  36  81 NE5       30.29R WCI  38
INVERNESS      FAIR      39  37  93 CALM      30.29S
BROOKSVILLE    CLEAR     44  39  82 NE6       30.28S WCI  41
ZEPHYRHILLS    FAIR      41  37  87 CALM      30.28S
CLEARWATER     CLEAR     50  44  80 NE9       30.26F
TAMPA INTL     CLEAR     47  40  76 NE7       30.27S WCI  44
TAMPA EXEC     CLEAR     46  41  81 CALM      30.27F
PLANT CITY     CLEAR     46  45  93 NE6       30.28S WCI  43
MACDILL AFB    CLEAR     45  44  96 E12       30.25F WCI  39
PETER O KNIGHT CLEAR     48  43  81 NE9       30.27S WCI  44
ST PETERSBURG  CLEAR     53  46  77 NE14      30.25S
SARASOTA       CLEAR     48  43  82 NE8       30.24S WCI  44
VENICE         FAIR      48  45  87 NE13G18   30.25S WCI  43

STATION/POSITION SKY/WX   TEMP    WIND        PRES    WAVE   SWELL
                          AIR SEA DIR/SP/G            HT/PER HT/PER
                          (F)     (DEG/KT/KT) (MB)    (FT/S) (FT/S)
CEDAR KEY                  47      70/ 10/ 11 1025.8F
28.5N   84.5W              59 69  100/ 10/ 14 1024.4F   2/ 4
27.3N   84.3W                 78                N/A     3/ 4
CLEARWATER BEACH           49 62   70/  9/ 12 1024.0F
MIDDLE TAMPA BAY           53      70/ 16/ 20 1024.5F
VENICE                     49 65   40/ 11/ 14 1023.6S

$$
FLZ066-069-070-075>078-162-262-165-265-291000-
SOUTHWEST FLORIDA AND KEYS

CITY           SKY/WX    TMP DP  RH WIND       PRES   REMARKS
PUNTA GORDA    CLEAR     48  45  89 NE9       30.25S WCI  44
FT MYERS       CLEAR     50  45  83 NE9       30.22S
SOUTHWEST INTL CLEAR     49  44  83 N6        30.22S
NAPLES         CLEAR     51  46  83 NE9       30.20F
MARCO ISLAND   SUNNY     52  45  76 N9        30.20S
MARATHON       CLEAR     59  56  89 N14G23    30.16S
KEY WEST NAS   PTCLDY    60  56  86 NE14      30.16F
KEY WEST INTL  PTCLDY    63  57  81 NE12G22   30.17S

STATION/POSITION SKY/WX   TEMP    WIND        PRES    WAVE   SWELL
                          AIR SEA DIR/SP/G            HT/PER HT/PER
                          (F)     (DEG/KT/KT) (MB)    (FT/S) (FT/S)
VENICE                     49 65   40/ 11/ 14 1023.6S
NAPLES                     53 71   40/  7/ 11 1023.3S
26.0N   85.6W              68 80   70/ 12/ 16 1022.6R   4/ 6   3/ 6
DRY TORTUGAS               66      50/ 19/ 23 1021.4F
NW FL BAY                  58      30/ 17/ 20 1021.5F
SAND KEY                   64      40/ 23/ 26 1021.0S
SOMBRERO KEY               62      30/ 18/ 20 1021.2R
LONG KEY                   59 66   20/ 21/ 23 1022.0F
MOLASSES REEF              60 75  360/ 17/ 19 1020.6F

$$
FLZ067-068-071>074-168-172>174-291000-
SOUTHEAST FLORIDA

CITY           SKY/WX    TMP DP  RH WIND       PRES   REMARKS
W PALM BEACH   PTCLDY    53  50  89 NW7       30.17F
FT LAUDER-EXEC CLEAR     54  50  86 W3        30.17F
FT LAUDERDALE  PTCLDY    56  50  80 NW9       30.17S
POMPANO BEACH  PTCLDY    55  49  80 NW8       30.17S
PEMBROKE PINES PTCLDY    54  50  86 NW10      30.19S
OPA LOCKA      PTCLDY    55  50  83 N9        30.18S
MIAMI          PTCLDY    56  50  80 NW6       30.17F
WEST KENDALL   CLEAR     55  51  86 N12       30.18S
HOMESTEAD      CLEAR     55  51  87 NW10      30.17S

STATION/POSITION SKY/WX   TEMP    WIND        PRES    WAVE   SWELL
                          AIR SEA DIR/SP/G            HT/PER HT/PER
                          (F)     (DEG/KT/KT) (MB)    (FT/S) (FT/S)
PORT EVERGLADES            57     310/  9/ 13 1021.3
VIRGINIA KEY               58 71  350/  7/ 12 1021.7F
LAKE WORTH                 56 75  320/ 10/ 12 1021.4F
SETTLEMENT POINT           68      40/ 15/ 16 1022.2S

$$





U.S. Dept. of Commerce
NOAA National Weather Service
1325 East West Highway
Silver Spring, MD 20910
E-mail: w-nws.webmaster@noaa.gov
Page last modified: May 16, 2007
NATIONAL WEATHER SERVICE: for Safety, for Work, for Fun - FOR LIFE